Overview Statistics Trail Chart Weather Telemetry Raw packets
 

This is the latest recevied weather packets stored in our database for station/object KJ5FA-10. If no packets are shown the sender has not sent any weather packets the latest 10 day(s).

<< 16 17 18 19 20 21 22 >>
Time Temp. Humidity Pressure Rain* Wind** Luminosity Snow
1788080081 18.89° C 91% 1018.4 hPa 0 mm - - -
1788079181 19.44° C 91% 1018.3 hPa 0 mm - - -
1788078281 19.44° C 90% 1018.4 hPa 0 mm - - -
1788077381 19.44° C 90% 1018.1 hPa 0 mm - - -
1788076481 19.44° C 91% 1018.5 hPa 0 mm - - -
1788075582 19.44° C 90% 1018.6 hPa 0 mm - - -
1788074682 20° C 89% 1018.5 hPa 0 mm - - -
1788073843 20° C 90% 1018.7 hPa 0 mm - - -
1788072884 20° C 90% 1018.7 hPa 0 mm - - -
1788071984 20° C 88% 1018.7 hPa 0 mm - - -
1788071084 20° C 88% 1018.6 hPa 0 mm - - -
1788070184 20° C 88% 1018.7 hPa 0 mm - - -
1788069284 20.56° C 86% 1018.7 hPa 0 mm - - -
1788068383 20.56° C 85% 1018.4 hPa 0 mm - - -
1788067484 21.11° C 83% 1018.6 hPa 0 mm - - -
1788066583 21.11° C 82% 1018.3 hPa 0 mm - - -
1788065684 21.67° C 79% 1018.4 hPa 0 mm - - -
1788064784 22.22° C 76% 1018.5 hPa 0 mm - - -
1788063883 22.22° C 74% 1018.4 hPa 0 mm - - -
1788061185 23.33° C 68% 1018.1 hPa 0 mm - - -
1788060284 23.89° C 67% 1018.4 hPa 0 mm - - -
1788059384 23.89° C 69% 1018.1 hPa 0 mm - - -
1788058484 24.44° C 64% 1017.9 hPa 0 mm - - -
1788056685 25.56° C 61% 1017.8 hPa 0 mm - - -
1788053984 26.67° C 55% 1017.1 hPa 0 mm - - -

* Rain latest hour (hover to see other rain measurements)
** Current wind speed in m/s (hover to see current wind gust speed)